This demonstration page uses our WeatherBlox Daily Observations layout. Learn more.

Left ArrowRight Arrow

39.12711, -84.51439

Hourly Observations for June 9, 2017

Temp ( °F °C ) Dew Point ( °F °C ) Humidity (%) Winds ( mph kmh ) Pressure ( in mb ) Visibility ( mi km ) Precip ( " mm )
12:53 am 00:53 Clear 55 12.8 54 12.2 96 96 Calm 29.91 1013 10 16 0.00 0.00
1:53 am 01:53 Clear 54 12.2 54 12.2 100 100 Calm 29.90 1013 9 14 0.00 0.00
2:53 am 02:53 Clear 54 12.2 54 12.2 100 100 Calm 29.90 1012 10 16 0.00 0.00
3:53 am 03:53 Clear with Mist and Fog 52 11.1 52 11.1 100 100 Calm 29.89 1012 4 6 0.00 0.00
4:02 am 04:02 Clear with Mist and Fog 52 11.1 52 11.1 100 100 Calm 29.94 1014 2 3 0.00 0.00
4:24 am 04:24 Clear with Mist and Fog 52 11.1 52 11.1 100 100 Calm 29.94 1014 3 5 0.00 0.00
4:53 am 04:53 Clear with Mist and Fog 50 10 50 10 100 100 Calm 29.90 1013 3 5 0.00 0.00
5:04 am 05:04 Clear with Mist and Fog 51 10.6 51 10.6 100 100 Calm 29.94 1014 2 3 0.00 0.00
5:16 am 05:16 Clear with Mist and Fog 51 10.6 51 10.6 100 100 Calm 29.94 1014 1 1 0.00 0.00
5:21 am 05:21 Clear with Mist and Fog 52 11.1 52 11.1 100 100 Calm 29.94 1014 3 5 0.00 0.00
5:53 am 05:53 Clear with Mist and Fog 51 10.6 51 10.6 100 100 Calm 29.91 1013 3 5 0.00 0.00
5:58 am 05:58 Clear with Mist and Fog 50 10 50 10 100 100 Calm 29.94 1014 2 2 0.00 0.00
6:07 am 06:07 Clear with Fog 50 10 50 10 100 100 Calm 29.94 1014 1 1 0.00 0.00
6:14 am 06:14 Sunny with Mist and Fog 50 10 50 10 100 100 Calm 29.94 1014 2 3 0.00 0.00
6:24 am 06:24 Sunny with Mist and Fog 49 9.4 49 9.4 100 100 Calm 29.94 1014 1 1 0.00 0.00
6:34 am 06:34 Sunny with Fog 50 10 50 10 100 100 Calm 29.94 1014 0 0 0.00 0.00
6:40 am 06:40 Sunny with Mist and Fog 51 10.6 51 10.6 100 100 Calm 29.94 1014 1 2 0.00 0.00
6:53 am 06:53 Sunny with Patchy Fog 50 10 50 10 100 100 Calm 29.93 1014 10 16 0.00 0.00
7:53 am 07:53 Sunny 56 13.3 54 12.2 93 93 Calm 29.94 1014 10 16 0.00 0.00
8:53 am 08:53 Sunny 62 16.7 57 13.9 84 84 Calm 29.95 1014 10 16 0.00 0.00
9:53 am 09:53 Sunny 71 21.7 57 13.9 61 61 SSW 5 7 29.95 1014 10 16 0.00 0.00
10:53 am 10:53 Sunny 75 23.9 56 13.3 52 52 SSW 8 13 29.94 1014 10 16 0.00 0.00
11:53 am 11:53 Sunny 76 24.4 56 13.3 50 50 SW 10 17 29.95 1014 10 16 0.00 0.00
12:53 pm 12:53 Sunny 78 25.6 58 14.4 50 50 SSW 14 22 29.94 1014 10 16 0.00 0.00
1:53 pm 13:53 Sunny 79 26.1 57 13.9 47 47 SSW 14 22 29.93 1014 10 16 0.00 0.00
2:53 pm 14:53 Sunny 80 26.7 57 13.9 45 45 SW 7 11 29.92 1013 10 16 0.00 0.00
3:53 pm 15:53 Sunny 81 27.2 58 14.4 45 45 SSW 9 15 29.90 1013 10 16 0.00 0.00
4:53 pm 16:53 Sunny 81 27.2 56 13.3 42 42 WSW 12 19 29.89 1012 10 16 0.00 0.00
5:53 pm 17:53 Sunny 81 27.2 57 13.9 44 44 SSW 16 26 29.88 1012 10 16 0.00 0.00
6:53 pm 18:53 Sunny 80 26.7 57 13.9 45 45 SW 12 19 29.88 1012 10 16 0.00 0.00
7:53 pm 19:53 Sunny 78 25.6 57 13.9 48 48 SSW 10 17 29.89 1012 10 16 0.00 0.00
8:53 pm 20:53 Sunny 70 21.1 58 14.4 66 66 S 9 15 29.89 1012 10 16 0.00 0.00
9:53 pm 21:53 Clear 67 19.4 58 14.4 73 73 S 6 9 29.91 1013 10 16 0.00 0.00
10:53 pm 22:53 Clear 66 18.9 58 14.4 75 75 Calm 29.93 1014 10 16 0.00 0.00
11:53 pm 23:53 Clear 65 18.3 58 14.4 78 78 Calm 29.94 1014 10 16 0.00 0.00

Powered by AerisWeather